Location: Asheville, NC
(35.6000°N, 82.5500°W)
Time: 10:40:18

FALCONSAT 3 - Pass Details

Date: 13 March 2018
Orbit: 461 x 466 km, 35.4° (Epoch: 20 March)

Event Time Altitude Azimuth Distance (km) Brightness Sun altitude
Exits shadow 06:32:41 31° 270° (W) 824 ? -15.3°
Maximum altitude 06:34:19 90° 217° (SW) 465 ? -14.9°
Drops below altitude 10° 06:37:59 10° 91° (E) 1,604 ? -14.2°
Sets 06:40:09 0° 91° (E) 2,478 ? -13.7°
